sat.trackr.live / text

‹ back to catalog

ONEWEB-0612

NORAD 54675 · 2022-166AK

PAYLOAD ACTIVE UNKNOWN

§ Identity

Operator
Country
UK
Launch date
2022-12-08
Launch site
AFETR
Launch vehicle
Mass (kg)
RCS (m²)

Purposes: comms

External: N2YO · Heavens-Above · Gunter

§ Orbital elements

Epoch: 2026-05-25T00:46:07.303872Z

Period
108.94 min
Inclination
87.9264°
Eccentricity
0.0002164
Mean motion
13.21827407 rev/d
Perigee alt
1,176.1 km
Apogee alt
1,179.4 km
Semi-major
7,555.9 km
B*
-3.7336e-5
RAAN
248.5775°
Arg perigee
98.7890°
Mean anomaly
261.3489°
Rev number
16,837

§ Raw data

ONEWEB-06121 54675U 22166AK  26145.03202898 -.00000002  00000+0 -37336-4 0  99932 54675  87.9264 248.5775 0002164  98.7890 261.3489 13.21827407168370

JSON: /api/v1/satellites/54675 · /tle

For live sub-satellite position, see the globe view (requires WebGL).

§ Visibility from observer

Set your observer location to see the next 7 days of passes ≥ 10°. The values pass through the URL so the page stays shareable.

No JS? Fill the form by hand. The geolocation button needs JavaScript.